Morrisville, VT

3:01 PM EST on February 06, 2016 (GMT -0500)
Morrisville Stowe State

Weather History for KMVL - October, 2013

Change the Weather History Date:

Saturday, October 26, 2013

  Actual Average Record
Temperature  
Mean Temperature 37 °F 42 °F  
Max Temperature 45 °F 52 °F 72 °F (2010)
Min Temperature 28 °F 32 °F 18 °F (1997)
Degree Days  
Heating Degree Days 28 23  
Month to date heating degree days 359 480  
Since 1 July heating degree days 673 812  
Cooling Degree Days 0 0  
Month to date cooling degree days 0 0  
Year to date cooling degree days 401 265  
Moisture  
Dew Point 31 °F    
Average Humidity 77    
Maximum Humidity 100    
Minimum Humidity 53    
Precipitation  
Precipitation 0.19 in 0.10 in 0.63 in (2002)
Month to date precipitation 1.56 2.62  
Year to date precipitation 34.60 29.75  
Sea Level Pressure  
Sea Level Pressure 29.97 in    
Wind  
Wind Speed 3 mph (SSW)    
Max Wind Speed 14 mph    
Max Gust Speed 20 mph    
Visibility 7 miles    
Events Rain , Snow    
T = Trace of Precipitation, MM = Missing Value Source: NWS Daily Summary

Daily Weather History Graph

Daily Weather History Graph

Search for Another Location

Airport or City:

Trip Planner

Search our weather history database for the weather conditions in past years. The results will help you decide how hot, cold, wet, or windy it might be!

Date:

Astronomy

Oct. 26, 2013 Rise Set
Actual Time 7:20 AM EDT 5:47 PM EDT
Civil Twilight 6:50 AM EDT 6:17 PM EDT
Nautical Twilight 6:16 AM EDT 6:51 PM EDT
Astronomical Twilight 5:42 AM EDT 7:25 PM EDT
Moon No Moon Rise 1:36 PM EDT (10/26)
Length of Visible Light 11h 27m
Length of Day
10h 27m
Waning Gibbous, 53% of the Moon is Illuminated
Oct 26
Waning Gibbous
Oct 26
Last Quarter
Nov 3
New
Nov 10
First Quarter
Nov 17
Full

Hourly Weather History & Observations

Time (EDT) Temp. Windchill Dew Point Humidity Pressure Visibility Wind Dir Wind Speed Gust Speed Precip Events Conditions
12:54 AM 30.9 °F - 25.0 °F 79% 30.13 in 10.0 mi Calm Calm - N/A   Scattered Clouds
1:54 AM 28.0 °F - 24.1 °F 85% 30.12 in 10.0 mi Calm Calm - N/A   Partly Cloudy
2:54 AM 28.0 °F 22.8 °F 24.1 °F 85% 30.11 in 10.0 mi South 4.6 mph - N/A   Clear
3:54 AM 30.0 °F 25.2 °F 26.1 °F 85% 30.09 in 10.0 mi South 4.6 mph - N/A   Overcast
4:54 AM 30.0 °F 26.5 °F 26.1 °F 85% 30.09 in 10.0 mi South 3.5 mph - N/A   Overcast
5:54 AM 30.0 °F - 26.1 °F 85% 30.06 in 10.0 mi Calm Calm - N/A   Overcast
6:54 AM 32.0 °F - 27.0 °F 82% 30.04 in 10.0 mi Calm Calm - N/A   Overcast
7:54 AM 32.0 °F - 27.0 °F 82% 30.05 in 6.0 mi Calm Calm - 0.00 in Snow Light Snow
8:02 AM 32.0 °F - 28.4 °F 87% 30.02 in 2.0 mi Calm Calm - 0.00 in Snow Light Snow
8:09 AM 32.0 °F - 28.4 °F 87% 30.02 in 1.2 mi Calm Calm - 0.00 in Snow Light Snow
8:15 AM 32.0 °F - 28.4 °F 87% 30.02 in 0.8 mi Calm Calm - 0.00 in Snow Light Snow
8:27 AM 32.0 °F - 28.4 °F 87% 30.02 in 1.2 mi Calm Calm - 0.00 in Snow Light Snow
8:42 AM 33.8 °F - 30.2 °F 87% 30.01 in 2.5 mi Calm Calm - 0.00 in Snow Light Snow
8:49 AM 33.8 °F - 30.2 °F 87% 30.01 in 5.0 mi Calm Calm - 0.00 in Snow Light Snow
8:54 AM 33.1 °F - 30.0 °F 89% 30.04 in 6.0 mi Calm Calm - 0.00 in Rain Light Rain
9:43 AM 33.8 °F - 32.0 °F 93% 29.99 in 2.5 mi Calm Calm - 0.02 in Rain Light Rain
9:51 AM 33.8 °F - 32.0 °F 93% 29.99 in 3.0 mi Calm Calm - 0.03 in Rain Light Rain
9:54 AM 34.0 °F - 33.1 °F 96% 30.02 in 3.0 mi Calm Calm - 0.04 in Rain Light Rain
10:04 AM 35.6 °F - 33.8 °F 93% 29.99 in 2.5 mi Calm Calm - 0.01 in Rain Light Rain
10:30 AM 37.4 °F 34.9 °F 33.8 °F 87% 29.98 in 4.0 mi South 3.5 mph - 0.03 in Rain Light Rain
10:54 AM 37.9 °F 35.5 °F 35.1 °F 89% 30.00 in 7.0 mi South 3.5 mph - 0.04 in Rain Light Rain
11:29 AM 39.2 °F 35.0 °F 35.6 °F 87% 29.94 in 10.0 mi South 5.8 mph - 0.01 in Rain Light Rain
11:54 AM 39.9 °F 34.5 °F 35.1 °F 83% 29.95 in 10.0 mi SSW 8.1 mph - 0.01 in   Overcast
12:54 PM 41.0 °F 34.7 °F 33.1 °F 73% 29.92 in 10.0 mi South 10.4 mph 17.3 mph 0.00 in Rain Light Rain
1:54 PM 42.1 °F 37.7 °F 32.0 °F 67% 29.89 in 10.0 mi SSW 6.9 mph - 0.00 in   Overcast
2:54 PM 44.1 °F 41.5 °F 30.0 °F 58% 29.86 in 10.0 mi Variable 4.6 mph - N/A   Overcast
3:54 PM 45.0 °F 42.6 °F 28.0 °F 52% 29.85 in 10.0 mi SSW 4.6 mph - N/A   Overcast
4:54 PM 42.1 °F 37.1 °F 30.9 °F 65% 29.86 in 10.0 mi SSW 8.1 mph 16.1 mph 0.00 in Rain Light Rain
5:08 PM 41.0 °F 38.0 °F 32.0 °F 70% 29.84 in 9.0 mi SSW 4.6 mph - 0.01 in Rain Light Rain
5:54 PM 39.0 °F 34.0 °F 34.0 °F 82% 29.88 in 7.0 mi SSW 6.9 mph - 0.05 in Rain Light Rain
6:54 PM 37.9 °F 33.5 °F 35.1 °F 89% 29.88 in 10.0 mi South 5.8 mph - 0.04 in Rain Light Rain
7:19 PM 37.4 °F 33.8 °F 35.6 °F 93% 29.84 in 10.0 mi South 4.6 mph - 0.00 in Rain Light Rain
7:54 PM 37.9 °F - 35.1 °F 89% 29.87 in 10.0 mi Calm Calm - 0.01 in   Overcast
8:54 PM 37.9 °F - 35.1 °F 89% 29.85 in 9.0 mi Calm Calm - 0.00 in   Overcast
9:54 PM 37.9 °F - 36.0 °F 93% 29.85 in 10.0 mi Calm Calm - N/A   Overcast
10:54 PM 37.9 °F - 35.1 °F 89% 29.83 in 10.0 mi Calm Calm - N/A   Overcast
11:54 PM 37.0 °F - 35.1 °F 93% 29.81 in 5.0 mi Calm Calm - N/A   Overcast